LAN561 SVMI-SCEL

Flight info

Callsign LAN561
Flight time N/A
Altitude 32000
Route N0475F320 VADOR2 MIQ UL216 SFD/N0473F340 UL216 PAY/N0475F330 UL216 AKPEP UL309 KOTOM/N0470F350 UL309 GRAFO/N0468F340 UL309 BOKAP/N0464F360 UL309 EMPEX/N0463F350 UL309 LOA UQ815 SIMOK SIMOK7B
Aircraft B763/H-SDE3FGHIM3RWXYZ/LB1

Departure

Time 2026-05-06 14:20
Airport Maiquetía Simón Bolívar International Airport (SVMI)

Arrival

Time N/A
Airport Comodoro Arturo Merino Benítez International Airport (SCEL)
Time Latitude Longitude Altitude Speed Heading
2026-05-06 14:03 10.59847 -67.00526 315 ft 0 kts 177°
2026-05-06 14:12 10.59850 -67.00526 316 ft 2 kts 178°
2026-05-06 14:12 10.59865 -67.00527 315 ft 2 kts 177°
2026-05-06 14:12 10.59880 -67.00528 315 ft 2 kts 184°
2026-05-06 14:12 10.59895 -67.00524 314 ft 2 kts 208°
2026-05-06 14:13 10.59907 -67.00516 314 ft 2 kts 229°
2026-05-06 14:13 10.59915 -67.00503 315 ft 2 kts 249°
2026-05-06 14:13 10.59918 -67.00491 315 ft 0 kts 267°
2026-05-06 14:13 10.59919 -67.00486 315 ft 0 kts 269°
2026-05-06 14:15 10.59918 -67.00489 315 ft 2 kts 269°
2026-05-06 14:16 10.59918 -67.00524 314 ft 7 kts 268°
2026-05-06 14:16 10.59915 -67.00585 313 ft 10 kts 268°
2026-05-06 14:16 10.59912 -67.00671 311 ft 14 kts 266°
2026-05-06 14:16 10.59907 -67.00781 309 ft 17 kts 268°
2026-05-06 14:17 10.59904 -67.00913 305 ft 19 kts 268°
2026-05-06 14:17 10.59900 -67.01047 301 ft 19 kts 269°
2026-05-06 14:17 10.59896 -67.01185 296 ft 19 kts 269°
2026-05-06 14:17 10.59985 -67.01241 294 ft 18 kts 354°
2026-05-06 14:18 10.60104 -67.01251 293 ft 15 kts 355°
2026-05-06 14:18 10.60201 -67.01255 294 ft 11 kts 358°
2026-05-06 14:18 10.60276 -67.01259 294 ft 10 kts 357°
2026-05-06 14:18 10.60347 -67.01261 294 ft 10 kts 360°
2026-05-06 14:19 10.60378 -67.01236 295 ft 3 kts 86°
2026-05-06 14:19 10.60379 -67.01205 297 ft 8 kts 90°
2026-05-06 14:19 10.60379 -67.01024 304 ft 50 kts 88°
2026-05-06 14:19 10.60401 -67.00461 310 ft 106 kts 88°
2026-05-06 14:20 10.60431 -66.99523 283 ft 158 kts 88°
2026-05-06 14:20 10.60475 -66.98248 334 ft 196 kts 88°
2026-05-06 14:20 10.60535 -66.96884 990 ft 195 kts 83°
2026-05-06 14:20 10.60809 -66.95511 1414 ft 207 kts 77°
2026-05-06 14:21 10.61123 -66.94012 1636 ft 230 kts 79°
2026-05-06 14:21 10.61524 -66.92351 2040 ft 249 kts 66°
2026-05-06 14:21 10.62617 -66.91013 2839 ft 251 kts 34°
2026-05-06 14:21 10.64259 -66.90420 3548 ft 258 kts
2026-05-06 14:22 10.66050 -66.90353 4262 ft 260 kts
2026-05-06 14:22 10.67858 -66.90716 4892 ft 270 kts 334°
2026-05-06 14:22 10.69287 -66.91922 5556 ft 275 kts 304°
2026-05-06 14:22 10.69999 -66.93709 6189 ft 279 kts 275°
2026-05-06 14:23 10.69789 -66.95661 6824 ft 279 kts 245°
2026-05-06 14:23 10.68713 -66.97253 7443 ft 276 kts 216°
2026-05-06 14:23 10.67038 -66.98144 8067 ft 272 kts 189°
2026-05-06 14:23 10.65127 -66.98448 8398 ft 287 kts 184°
2026-05-06 14:24 10.63135 -66.98689 9066 ft 290 kts 183°
2026-05-06 14:24 10.61101 -66.98911 9751 ft 294 kts 185°
2026-05-06 14:24 10.59079 -66.99371 10357 ft 301 kts 191°
2026-05-06 14:24 10.56962 -66.99906 10485 ft 326 kts 190°
2026-05-06 14:25 10.54657 -67.00467 10621 ft 351 kts 190°
2026-05-06 14:25 10.52266 -67.01051 11300 ft 356 kts 189°
2026-05-06 14:25 10.49841 -67.01640 11962 ft 361 kts 189°
2026-05-06 14:25 10.47375 -67.02237 12591 ft 366 kts 189°
2026-05-06 14:26 10.44881 -67.02840 13217 ft 371 kts 189°
2026-05-06 14:26 10.42341 -67.03453 13807 ft 377 kts 189°
2026-05-06 14:26 10.39774 -67.04072 14385 ft 382 kts 190°
2026-05-06 14:26 10.37132 -67.04727 14548 ft 401 kts 191°
2026-05-06 14:27 10.34369 -67.05423 15181 ft 405 kts 191°
2026-05-06 14:27 10.31609 -67.06118 15774 ft 411 kts 192°
2026-05-06 14:27 10.28816 -67.06820 16348 ft 416 kts 192°
2026-05-06 14:27 10.25993 -67.07529 16918 ft 421 kts 192°
2026-05-06 14:28 10.23127 -67.08248 17462 ft 427 kts 193°
2026-05-06 14:28 10.20249 -67.08971 18133 ft 428 kts 193°
2026-05-06 14:28 10.17326 -67.09705 18808 ft 428 kts 193°
2026-05-06 14:28 10.14416 -67.10435 19375 ft 431 kts 193°
2026-05-06 14:29 10.11513 -67.11163 20030 ft 432 kts 194°
2026-05-06 14:29 10.08565 -67.11903 20591 ft 434 kts 194°
2026-05-06 14:29 10.05645 -67.12635 21147 ft 436 kts 194°
2026-05-06 14:29 10.02668 -67.13382 21683 ft 438 kts 194°
2026-05-06 14:30 9.99720 -67.14120 22202 ft 440 kts 195°
2026-05-06 14:30 9.96744 -67.14860 22697 ft 442 kts 193°
2026-05-06 14:30 9.93657 -67.15366 23119 ft 446 kts 188°
2026-05-06 14:30 9.90592 -67.15801 23611 ft 448 kts 189°
2026-05-06 14:31 9.87482 -67.16236 24065 ft 451 kts 189°
2026-05-06 14:31 9.84329 -67.16677 24534 ft 453 kts 188°
2026-05-06 14:31 9.81208 -67.17110 24968 ft 455 kts 188°
2026-05-06 14:31 9.78040 -67.17548 25398 ft 458 kts 188°
2026-05-06 14:32 9.74883 -67.17984 25811 ft 461 kts 188°
2026-05-06 14:32 9.71706 -67.18424 26213 ft 463 kts 189°
2026-05-06 14:32 9.68454 -67.18872 26602 ft 466 kts 188°
2026-05-06 14:32 9.65229 -67.19318 26981 ft 469 kts 189°
2026-05-06 14:33 9.62002 -67.19764 27371 ft 471 kts 188°
2026-05-06 14:33 9.58704 -67.20218 27775 ft 473 kts 188°
2026-05-06 14:33 9.55438 -67.20669 28117 ft 476 kts 188°
2026-05-06 14:33 9.52155 -67.21122 28482 ft 479 kts 188°
2026-05-06 14:34 9.48806 -67.21584 28841 ft 481 kts 188°
2026-05-06 14:34 9.45489 -67.22041 29187 ft 484 kts 188°
2026-05-06 14:34 9.42157 -67.22500 29553 ft 486 kts 188°
2026-05-06 14:34 9.38767 -67.22967 29996 ft 486 kts 188°
2026-05-06 14:35 9.35420 -67.23428 30429 ft 486 kts 188°
2026-05-06 14:35 9.32074 -67.23889 30875 ft 485 kts 188°
2026-05-06 14:35 9.28737 -67.24348 31340 ft 483 kts 188°
2026-05-06 14:35 9.25369 -67.24812 31878 ft 480 kts 188°
2026-05-06 14:36 9.22062 -67.25268 32287 ft 480 kts 188°
2026-05-06 14:36 9.18764 -67.25723 32709 ft 479 kts 188°
2026-05-06 14:36 9.15430 -67.26181 33033 ft 477 kts 188°
2026-05-06 14:36 9.12158 -67.26631 32988 ft 475 kts 188°
2026-05-06 14:37 9.05626 -67.27530 33006 ft 474 kts 188°
2026-05-06 14:37 8.99060 -67.28432 33003 ft 476 kts 188°
2026-05-06 14:38 8.92442 -67.29343 33000 ft 477 kts 188°
2026-05-06 14:38 8.85834 -67.30250 32996 ft 477 kts 188°
2026-05-06 14:39 8.79273 -67.31152 32993 ft 475 kts 188°
2026-05-06 14:39 8.72689 -67.32056 32990 ft 475 kts 188°
2026-05-06 14:40 8.66122 -67.32958 32990 ft 476 kts 188°
2026-05-06 14:40 8.59522 -67.33863 32990 ft 476 kts 188°
2026-05-06 14:41 8.52958 -67.34763 32986 ft 477 kts 188°
2026-05-06 14:41 8.46341 -67.35671 32983 ft 477 kts 188°
2026-05-06 14:42 8.39767 -67.36572 32984 ft 476 kts 188°
2026-05-06 14:42 8.33167 -67.37489 32984 ft 476 kts 188°
2026-05-06 14:43 8.26605 -67.38428 32982 ft 476 kts 188°
2026-05-06 14:43 8.20004 -67.39370 32978 ft 477 kts 188°
2026-05-06 14:44 8.13433 -67.40308 32976 ft 477 kts 188°
2026-05-06 14:45 8.03560 -67.41716 32976 ft 476 kts 188°
2026-05-06 14:45 7.96956 -67.42657 32974 ft 476 kts 188°
2026-05-06 14:46 7.90406 -67.43591 32971 ft 476 kts 188°
2026-05-06 14:46 7.83756 -67.44241 32979 ft 477 kts 184°
2026-05-06 14:47 7.77126 -67.44711 32975 ft 478 kts 184°
2026-05-06 14:47 7.70453 -67.45193 32973 ft 477 kts 184°
2026-05-06 14:48 7.63836 -67.45671 32975 ft 477 kts 184°
2026-05-06 14:48 7.57166 -67.46154 32974 ft 477 kts 185°
2026-05-06 14:49 7.50548 -67.46634 32969 ft 474 kts 185°
2026-05-06 14:49 7.43967 -67.47112 32969 ft 467 kts 185°
2026-05-06 14:50 7.37512 -67.47580 32973 ft 465 kts 184°
2026-05-06 14:50 7.30993 -67.48055 32975 ft 467 kts 185°
2026-05-06 14:51 7.24498 -67.48556 32975 ft 468 kts 185°
2026-05-06 14:51 7.18039 -67.49054 32973 ft 464 kts 185°
2026-05-06 14:52 7.11556 -67.49553 32977 ft 465 kts 185°
2026-05-06 14:52 7.05070 -67.50053 32975 ft 466 kts 185°
2026-05-06 14:53 6.98626 -67.50549 32973 ft 465 kts 185°
2026-05-06 14:53 6.92128 -67.51049 32980 ft 466 kts 185°
2026-05-06 14:54 6.85603 -67.51551 32981 ft 465 kts 185°
2026-05-06 14:54 6.79141 -67.52048 32982 ft 466 kts 185°
2026-05-06 14:55 6.72654 -67.52546 32984 ft 465 kts 184°
2026-05-06 14:55 6.66215 -67.53020 32988 ft 464 kts 184°
2026-05-06 14:56 6.59731 -67.53498 32995 ft 465 kts 184°
2026-05-06 14:56 6.53273 -67.53973 33000 ft 465 kts 184°
2026-05-06 14:57 6.46795 -67.54450 33002 ft 465 kts 184°
2026-05-06 14:57 6.40342 -67.54926 32999 ft 465 kts 184°
2026-05-06 14:58 6.33846 -67.55403 32997 ft 465 kts 184°
2026-05-06 14:58 6.27376 -67.55879 33000 ft 464 kts 184°
2026-05-06 14:59 6.20953 -67.56377 33001 ft 464 kts 184°
2026-05-06 14:59 6.14476 -67.56885 33002 ft 464 kts 184°
2026-05-06 15:00 6.08023 -67.57392 32996 ft 464 kts 184°
2026-05-06 15:00 6.01598 -67.57897 32992 ft 464 kts 184°
2026-05-06 15:01 5.95144 -67.58405 33005 ft 465 kts 184°
2026-05-06 15:01 5.88638 -67.58915 33020 ft 466 kts 184°
2026-05-06 15:02 5.82151 -67.59425 33026 ft 464 kts 184°
2026-05-06 15:02 5.75716 -67.59929 33030 ft 463 kts 184°
2026-05-06 15:03 5.69264 -67.60435 33037 ft 462 kts 184°
2026-05-06 15:03 5.62856 -67.60720 33050 ft 462 kts 175°
2026-05-06 15:04 5.56532 -67.59319 33066 ft 464 kts 163°
2026-05-06 15:04 5.50364 -67.57399 33065 ft 464 kts 163°
2026-05-06 15:05 5.44197 -67.55435 33067 ft 463 kts 162°
2026-05-06 15:05 5.38064 -67.53468 33090 ft 463 kts 162°
2026-05-06 15:06 5.31895 -67.51485 33106 ft 463 kts 162°
2026-05-06 15:06 5.25784 -67.49519 33128 ft 462 kts 162°
2026-05-06 15:07 5.19617 -67.47537 33146 ft 462 kts 162°
2026-05-06 15:07 5.13503 -67.45571 33158 ft 463 kts 162°
2026-05-06 15:08 5.07344 -67.43591 33184 ft 462 kts 162°
2026-05-06 15:08 5.01186 -67.41612 33195 ft 462 kts 162°
2026-05-06 15:09 4.95066 -67.39646 33205 ft 464 kts 162°
2026-05-06 15:09 4.88857 -67.37651 33206 ft 465 kts 162°
2026-05-06 15:10 4.82701 -67.35674 33198 ft 463 kts 161°
2026-05-06 15:10 4.76532 -67.33692 33191 ft 462 kts 162°
2026-05-06 15:11 4.70410 -67.31727 33180 ft 464 kts 162°
2026-05-06 15:11 4.64239 -67.29745 33182 ft 463 kts 162°
2026-05-06 15:12 4.58101 -67.27776 33177 ft 463 kts 161°
2026-05-06 15:12 4.51939 -67.25799 33172 ft 462 kts 161°
2026-05-06 15:13 4.45790 -67.23825 33172 ft 464 kts 161°
2026-05-06 15:13 4.39609 -67.21842 33161 ft 465 kts 161°
2026-05-06 15:14 4.33452 -67.19868 33145 ft 465 kts 161°
2026-05-06 15:14 4.27267 -67.17884 33148 ft 464 kts 161°
2026-05-06 15:15 4.21122 -67.15914 33133 ft 463 kts 161°
2026-05-06 15:15 4.14953 -67.13937 33097 ft 462 kts 161°
2026-05-06 15:16 4.08840 -67.11977 33065 ft 462 kts 161°
2026-05-06 15:16 4.02675 -67.10001 33040 ft 463 kts 161°
2026-05-06 15:17 3.96529 -67.08032 33003 ft 464 kts 161°
2026-05-06 15:17 3.90329 -67.06046 32994 ft 465 kts 161°
2026-05-06 15:18 3.84147 -67.04066 32993 ft 463 kts 161°
2026-05-06 15:18 3.78022 -67.02103 32991 ft 462 kts 161°
2026-05-06 15:19 3.71859 -67.00129 32989 ft 462 kts 161°
2026-05-06 15:19 3.65706 -66.98158 32996 ft 463 kts 161°
2026-05-06 15:20 3.59566 -66.96192 33002 ft 463 kts 161°
2026-05-06 15:20 3.53398 -66.94218 33000 ft 462 kts 161°
2026-05-06 15:21 3.47279 -66.92260 32994 ft 463 kts 161°
2026-05-06 15:21 3.41109 -66.90286 32998 ft 464 kts 161°
2026-05-06 15:22 3.34970 -66.88320 32998 ft 463 kts 161°
2026-05-06 15:22 3.28807 -66.86349 32999 ft 463 kts 161°
2026-05-06 15:23 3.22649 -66.84379 32997 ft 463 kts 161°
2026-05-06 15:23 3.16512 -66.82415 32997 ft 464 kts 161°
2026-05-06 15:24 3.10339 -66.80441 32994 ft 463 kts 161°
2026-05-06 15:24 3.04181 -66.78472 33001 ft 462 kts 161°
2026-05-06 15:25 2.98069 -66.76517 32999 ft 463 kts 161°
2026-05-06 15:25 2.91894 -66.74543 32995 ft 463 kts 161°
2026-05-06 15:26 2.85730 -66.72573 32997 ft 463 kts 161°
2026-05-06 15:26 2.79583 -66.70608 32996 ft 462 kts 161°
2026-05-06 15:27 2.73457 -66.68650 32995 ft 463 kts 161°
2026-05-06 15:27 2.67322 -66.66689 32990 ft 463 kts 161°
2026-05-06 15:28 2.61177 -66.64726 32994 ft 462 kts 161°
2026-05-06 15:28 2.54996 -66.62751 32996 ft 463 kts 161°
2026-05-06 15:29 2.48869 -66.60793 32998 ft 462 kts 161°
2026-05-06 15:29 2.42750 -66.58839 32994 ft 462 kts 161°
2026-05-06 15:30 2.36593 -66.56873 32997 ft 461 kts 161°
2026-05-06 15:30 2.30467 -66.54916 32998 ft 461 kts 161°
2026-05-06 15:31 2.24364 -66.52966 32997 ft 461 kts 161°
2026-05-06 15:31 2.18205 -66.51000 32998 ft 462 kts 161°
2026-05-06 15:32 2.08999 -66.48061 32994 ft 461 kts 161°
2026-05-06 15:32 2.02901 -66.46114 32996 ft 461 kts 161°
2026-05-06 15:33 1.96759 -66.44153 32998 ft 461 kts 161°
2026-05-06 15:33 1.90643 -66.42200 32995 ft 460 kts 160°
2026-05-06 15:34 1.84474 -66.40231 33001 ft 461 kts 160°
2026-05-06 15:34 1.78361 -66.38281 33000 ft 461 kts 160°
2026-05-06 15:35 1.72239 -66.36327 33004 ft 461 kts 160°
2026-05-06 15:35 1.66068 -66.34358 33014 ft 461 kts 160°
2026-05-06 15:36 1.59949 -66.32404 33022 ft 461 kts 160°
2026-05-06 15:36 1.53843 -66.30456 33031 ft 460 kts 160°
2026-05-06 15:37 1.47733 -66.28507 33028 ft 459 kts 160°
2026-05-06 15:37 1.41646 -66.26565 33036 ft 459 kts 160°
2026-05-06 15:38 1.35518 -66.24609 33047 ft 460 kts 160°
2026-05-06 15:38 1.29403 -66.22659 33067 ft 460 kts 160°
2026-05-06 15:39 1.23284 -66.20707 33073 ft 459 kts 160°
2026-05-06 15:39 1.17209 -66.18769 33078 ft 459 kts 160°
2026-05-06 15:40 1.11109 -66.16824 33092 ft 460 kts 160°
2026-05-06 15:40 1.04980 -66.14869 33098 ft 459 kts 160°
2026-05-06 15:41 0.98865 -66.12918 33107 ft 459 kts 160°
2026-05-06 15:41 0.92787 -66.10980 33131 ft 460 kts 160°
2026-05-06 15:42 0.86638 -66.09019 33146 ft 461 kts 160°
2026-05-06 15:42 0.80420 -66.07295 33168 ft 464 kts 169°
2026-05-06 15:43 0.73916 -66.07363 33199 ft 469 kts 186°
2026-05-06 15:43 0.67465 -66.08429 33156 ft 470 kts 187°
2026-05-06 15:44 0.61015 -66.09544 33116 ft 469 kts 187°
2026-05-06 15:44 0.54559 -66.10678 33085 ft 469 kts 187°
2026-05-06 15:45 0.48104 -66.11818 33052 ft 470 kts 187°
2026-05-06 15:45 0.41667 -66.12956 33044 ft 470 kts 187°
2026-05-06 15:46 0.35226 -66.14095 33039 ft 470 kts 187°
2026-05-06 15:46 0.28738 -66.15243 33031 ft 470 kts 187°
2026-05-06 15:47 0.22276 -66.16387 33022 ft 471 kts 187°
2026-05-06 15:47 0.15825 -66.17529 33024 ft 470 kts 187°
2026-05-06 15:48 0.09364 -66.18671 33025 ft 469 kts 187°
2026-05-06 15:48 0.02948 -66.19807 33019 ft 469 kts 187°
2026-05-06 15:49 -0.03539 -66.20954 33018 ft 471 kts 187°
2026-05-06 15:49 -0.10018 -66.22100 33014 ft 472 kts 187°
2026-05-06 15:50 -0.16529 -66.23253 33018 ft 471 kts 187°
2026-05-06 15:50 -0.22984 -66.24395 33020 ft 471 kts 187°
2026-05-06 15:51 -0.29443 -66.25538 33025 ft 471 kts 187°
2026-05-06 15:51 -0.35932 -66.26685 33019 ft 471 kts 187°
2026-05-06 15:52 -0.42395 -66.27830 33014 ft 471 kts 187°
2026-05-06 15:52 -0.48845 -66.28970 33015 ft 471 kts 187°
2026-05-06 15:53 -0.55347 -66.30121 33015 ft 472 kts 187°
2026-05-06 15:53 -0.61799 -66.31261 33017 ft 472 kts 187°
2026-05-06 15:54 -0.68283 -66.32410 33016 ft 471 kts 187°
2026-05-06 15:54 -0.74772 -66.33557 33019 ft 470 kts 187°
2026-05-06 15:55 -0.81208 -66.34695 33020 ft 471 kts 187°
2026-05-06 15:55 -0.87670 -66.35839 33018 ft 471 kts 187°
2026-05-06 15:56 -0.94141 -66.36983 33020 ft 472 kts 187°
2026-05-06 15:56 -1.00653 -66.38136 33018 ft 472 kts 187°
2026-05-06 15:57 -1.07134 -66.39283 33020 ft 472 kts 188°
2026-05-06 15:57 -1.13639 -66.40434 33022 ft 471 kts 188°
2026-05-06 15:58 -1.20117 -66.41581 33022 ft 471 kts 188°
2026-05-06 15:58 -1.26593 -66.42727 33022 ft 472 kts 188°
2026-05-06 15:59 -1.33098 -66.43878 33021 ft 472 kts 188°
2026-05-06 15:59 -1.39590 -66.45027 33019 ft 472 kts 188°
2026-05-06 16:00 -1.46066 -66.46173 33018 ft 472 kts 188°
2026-05-06 16:00 -1.52540 -66.47319 33016 ft 471 kts 188°
2026-05-06 16:01 -1.58995 -66.48462 33016 ft 473 kts 188°
2026-05-06 16:01 -1.65490 -66.49611 33016 ft 473 kts 188°
2026-05-06 16:02 -1.71980 -66.50761 33016 ft 472 kts 188°
2026-05-06 16:02 -1.78493 -66.51914 33017 ft 472 kts 188°
2026-05-06 16:03 -1.84960 -66.53059 33017 ft 471 kts 188°
2026-05-06 16:03 -1.91435 -66.54201 33015 ft 470 kts 187°
2026-05-06 16:04 -1.97881 -66.55291 33014 ft 470 kts 188°
2026-05-06 16:04 -2.04393 -66.56393 33017 ft 472 kts 188°
2026-05-06 16:05 -2.10890 -66.57494 33018 ft 472 kts 188°
2026-05-06 16:05 -2.17390 -66.58595 33017 ft 473 kts 188°
2026-05-06 16:06 -2.23893 -66.59698 33017 ft 472 kts 188°
2026-05-06 16:06 -2.30407 -66.60801 33018 ft 472 kts 188°
2026-05-06 16:07 -2.36884 -66.61900 33018 ft 473 kts 187°
2026-05-06 16:07 -2.43388 -66.63001 33017 ft 472 kts 188°
2026-05-06 16:08 -2.49906 -66.64106 33015 ft 474 kts 188°
2026-05-06 16:08 -2.56424 -66.65211 33014 ft 474 kts 187°
2026-05-06 16:09 -2.62984 -66.66323 33013 ft 474 kts 187°
2026-05-06 16:09 -2.69501 -66.67427 33013 ft 474 kts 188°
2026-05-06 16:10 -2.76016 -66.68531 33014 ft 475 kts 187°
2026-05-06 16:10 -2.82529 -66.69634 33014 ft 474 kts 188°
2026-05-06 16:11 -2.89056 -66.70739 33014 ft 475 kts 188°
2026-05-06 16:11 -2.95607 -66.71850 33015 ft 475 kts 187°
2026-05-06 16:12 -3.02156 -66.72959 33016 ft 476 kts 187°
2026-05-06 16:12 -3.08720 -66.74071 33011 ft 476 kts 187°
2026-05-06 16:13 -3.15290 -66.75185 33003 ft 477 kts 187°
2026-05-06 16:13 -3.21835 -66.76294 32998 ft 477 kts 188°
2026-05-06 16:14 -3.28428 -66.77412 32997 ft 478 kts 188°
2026-05-06 16:14 -3.34988 -66.78525 33001 ft 479 kts 188°
2026-05-06 16:15 -3.41570 -66.79640 33004 ft 480 kts 188°
2026-05-06 16:15 -3.48171 -66.80760 33003 ft 480 kts 188°
2026-05-06 16:16 -3.54758 -66.81878 33005 ft 479 kts 188°
2026-05-06 16:16 -3.61398 -66.83008 33009 ft 480 kts 188°
2026-05-06 16:17 -3.68007 -66.84131 33001 ft 481 kts 188°
2026-05-06 16:17 -3.74635 -66.85258 33007 ft 482 kts 188°
2026-05-06 16:18 -3.81237 -66.86378 33010 ft 482 kts 188°
2026-05-06 16:18 -3.87850 -66.87502 33004 ft 481 kts 188°
2026-05-06 16:19 -3.94478 -66.88628 33002 ft 482 kts 188°
2026-05-06 16:19 -4.01089 -66.89751 33001 ft 481 kts 188°
2026-05-06 16:20 -4.07733 -66.90881 33005 ft 480 kts 188°
2026-05-06 16:20 -4.14347 -66.92006 33004 ft 481 kts 188°
2026-05-06 16:21 -4.20960 -66.93131 33002 ft 482 kts 188°
2026-05-06 16:21 -4.27586 -66.94259 33006 ft 483 kts 188°
2026-05-06 16:22 -4.34214 -66.95387 33007 ft 483 kts 188°
2026-05-06 16:22 -4.40869 -66.96519 33010 ft 483 kts 188°
2026-05-06 16:23 -4.47533 -66.97652 33006 ft 483 kts 188°
2026-05-06 16:23 -4.54132 -66.98776 33007 ft 483 kts 188°
2026-05-06 16:24 -4.60806 -66.99912 33006 ft 484 kts 188°
2026-05-06 16:24 -4.67477 -67.01049 33003 ft 484 kts 188°
2026-05-06 16:25 -4.74119 -67.02181 33004 ft 483 kts 188°
2026-05-06 16:25 -4.80774 -67.03313 33005 ft 483 kts 188°
2026-05-06 16:26 -4.87402 -67.04443 32999 ft 483 kts 188°
2026-05-06 16:26 -4.94049 -67.05576 33004 ft 483 kts 188°
2026-05-06 16:27 -5.00713 -67.06712 33006 ft 485 kts 188°
2026-05-06 16:27 -5.07374 -67.07848 33004 ft 485 kts 188°
2026-05-06 16:28 -5.14031 -67.08983 32997 ft 484 kts 188°
2026-05-06 16:28 -5.20719 -67.10124 32998 ft 484 kts 188°
2026-05-06 16:29 -5.27377 -67.11259 33001 ft 485 kts 188°
2026-05-06 16:29 -5.34044 -67.12398 32997 ft 485 kts 188°
2026-05-06 16:30 -5.39573 -67.13341 33000 ft 486 kts 188°
2026-05-06 16:30 -5.47401 -67.14678 32998 ft 487 kts 188°
2026-05-06 16:31 -5.54110 -67.15823 33004 ft 486 kts 188°
2026-05-06 16:31 -5.60774 -67.16962 33004 ft 486 kts 188°
2026-05-06 16:32 -5.67431 -67.18098 33001 ft 486 kts 188°
2026-05-06 16:32 -5.74153 -67.19246 33006 ft 487 kts 188°
2026-05-06 16:33 -5.80850 -67.20390 33004 ft 488 kts 188°
2026-05-06 16:34 -5.90940 -67.22114 33002 ft 488 kts 188°
2026-05-06 16:34 -5.97628 -67.23257 32998 ft 488 kts 188°
2026-05-06 16:35 -6.04333 -67.24403 32990 ft 488 kts 188°
2026-05-06 16:35 -6.11020 -67.25547 32982 ft 487 kts 188°
2026-05-06 16:36 -6.17730 -67.26695 32985 ft 488 kts 188°
2026-05-06 16:36 -6.24475 -67.27849 32982 ft 488 kts 188°
2026-05-06 16:37 -6.31161 -67.28993 32983 ft 487 kts 188°
2026-05-06 16:37 -6.37849 -67.30138 32983 ft 488 kts 188°
2026-05-06 16:38 -6.44579 -67.31290 32988 ft 488 kts 188°
2026-05-06 16:38 -6.51267 -67.32436 32988 ft 488 kts 188°
2026-05-06 16:39 -6.57985 -67.33587 32993 ft 488 kts 189°
2026-05-06 16:39 -6.64704 -67.34738 32990 ft 487 kts 189°
2026-05-06 16:40 -6.71386 -67.35884 32990 ft 487 kts 188°
2026-05-06 16:40 -6.78098 -67.37035 32989 ft 487 kts 188°
2026-05-06 16:41 -6.84825 -67.38188 32989 ft 488 kts 189°
2026-05-06 16:41 -6.91517 -67.39336 32991 ft 488 kts 189°
2026-05-06 16:42 -6.98206 -67.40484 32996 ft 488 kts 189°
2026-05-06 16:42 -7.04921 -67.41637 32993 ft 487 kts 189°
2026-05-06 16:43 -7.11627 -67.42790 32992 ft 487 kts 189°
2026-05-06 16:43 -7.18337 -67.43942 32992 ft 487 kts 188°
2026-05-06 16:44 -7.25007 -67.45089 32994 ft 487 kts 189°
2026-05-06 16:44 -7.31720 -67.46243 32994 ft 486 kts 188°
2026-05-06 16:45 -7.38433 -67.47398 32995 ft 487 kts 188°
2026-05-06 16:45 -7.45109 -67.48547 33001 ft 486 kts 188°
2026-05-06 16:46 -7.51751 -67.49690 32994 ft 485 kts 188°
2026-05-06 16:46 -7.58453 -67.50844 32990 ft 485 kts 188°
2026-05-06 16:47 -7.65105 -67.51989 32994 ft 485 kts 189°
2026-05-06 16:47 -7.71769 -67.53138 32996 ft 485 kts 189°
2026-05-06 16:48 -7.78464 -67.54291 32992 ft 485 kts 188°
2026-05-06 16:48 -7.85124 -67.55440 32989 ft 485 kts 188°
2026-05-06 16:49 -7.91803 -67.56591 32990 ft 484 kts 189°
2026-05-06 16:49 -7.98462 -67.57740 32983 ft 484 kts 189°
2026-05-06 16:50 -8.05086 -67.58883 32986 ft 484 kts 189°
2026-05-06 16:50 -8.11760 -67.60035 32982 ft 484 kts 189°
2026-05-06 16:51 -8.18432 -67.61187 32991 ft 484 kts 188°
2026-05-06 16:51 -8.25070 -67.62334 32991 ft 484 kts 188°
2026-05-06 16:52 -8.29533 -67.63105 32992 ft 484 kts 189°